Terug naar catalogus

STARLINK-34994

ActiefCommunicatieVLEO
NORAD 65924·PAYLOAD·🇺🇸 United States

Gelanceerd Oct 8, 2025 vanaf Vandenberg Space Force Base

Loading…

Volgende Passages (komende 24 uur)

TLE

VersSource: CelesTrak SupGP

Epoch: Sep 15, 2026, 04:03 UTC

1 65924C 25225Q   26258.16923611  .00079853  00000+0  23580-2 0  2583
2 65924  53.1597   2.3381 0001071  82.1691 282.2417 15.34368519    13

Volg STARLINK-34994 in realtime met AllMySat

Download on the App Store